Regional Weather Roundup
Issued by NWS Kansas City/Pleasant Hill, MO

Home | Current Version | Previous Version | Text Only | Print | Product List | Glossary On
Versions: 1 2 3 4 5 6 7 8 9 10 11 12 13 14 15 16 17 18 19 20 21 22 23 24 25 26 27 28 29 30 31 32 33 34 35 36 37 38 39 40 41 42 43 44 45 46 47 48 49 50
000
ASUS43 KEAX 271310
RWREAX

WEATHER ROUNDUP FOR EASTERN KANSAS AND NORTHWEST MISSOURI
NATIONAL WEATHER SERVICE KANSAS CITY/PLEASANT HILL MO
800 AM CDT SAT AUG 27 2016

KSZ040-057-103>105-MOZ028-029-037-043-271400-
...KANSAS CITY METROPOLITAN AREA...

CITY           SKY/WX    TMP DP  RH WIND       PRES   REMARKS
K.C. INTL      PTSUNNY   68  65  90 S5        30.04F
K.C. DOWNTOWN  CLOUDY    73  68  84 CALM      30.05R
LEES SUMMIT    CLOUDY    72  69  90 W9        30.07R
OLATHE - IXD   CLOUDY    71  68  90 W3        30.07F
OLATHE - OJC   MOSUNNY   72  68  87 CALM      30.06R
LAWRENCE       CLOUDY    68  68 100 SE8       30.04F

$$

MOZ001>008-011>017-020>025-030>033-038>040-044>046-053-054-271400-
...NORTHERN AND CENTRAL MISSOURI...

CITY           SKY/WX    TMP DP  RH WIND       PRES   REMARKS
ST. JOSEPH     LGT RAIN  69  68  96 S5        30.02F
MOSBY          RAIN      68  68 100 W6        30.05R
WHITEMAN AFB   PTSUNNY   72  72 100 SW7       30.05R
CLINTON        SUNNY     72  72 100 CALM      30.06S
SEDALIA        SUNNY     73  71  93 SW8       30.07R
WARSAW         NOT AVBL
CHILLICOTHE    NOT AVBL
KIRKSVILLE     MOSUNNY   68  66  93 CALM      30.07R

$$

MOZ041-047>049-056>058-063>065-088>090-097-271400-
...EASTERN AND SOUTHERN MISSOURI...

CITY           SKY/WX    TMP DP  RH WIND       PRES   REMARKS
ST. LOUIS INTL CLOUDY    77  68  73 S5        30.08R
SPIRIT OF STL  CLOUDY    74  71  91 S6        30.06S
COLUMBIA       MOSUNNY   72  71  97 SE6       30.08R
JEFFERSON CITY SUNNY     72  71  97 CALM      30.07R
ROLLA          CLOUDY    71  69  93 S8        30.09R
OSAGE BEACH    PTSUNNY   73  72  96 SW3       30.09R
SPRINGFIELD    MOSUNNY   74  70  87 S6        30.09R
BRANSON        MOSUNNY   72  70  94 S5        30.11R
JOPLIN         SUNNY     71  69  93 CALM      30.08R
WEST PLAINS    MOSUNNY   71  68  90 S6        30.12S

$$

IAZ060-094-KSZ022-034>040-054-083-096-NEZ052-066-093-271400-
...KANSAS...SOUTHEAST NEBRASKA AND IOWA...

CITY           SKY/WX    TMP DP  RH WIND       PRES   REMARKS
TOPEKA         MOSUNNY   67  66  97 CALM      30.02F
MANHATTAN      MOSUNNY   67  66  97 CALM      30.01S
EMPORIA        SUNNY     69  66  90 SE9       30.03F
CHANUTE        CLOUDY    71  71 100 S6        30.05S FOG
WICHITA        MOSUNNY   72  68  87 E8        30.04F
OMAHA          CLOUDY    67  65  93 S5        30.02R FOG
LINCOLN        CLOUDY    68  67  96 CALM      30.03S FOG
FALLS CITY     CLOUDY    68  67  96 W5        30.02R
LAMONI         CLOUDY    68  68 100 VRB3      30.04R
DES MOINES     FOG       65  63  93 CALM      30.03R VSB 1

$$




USA.gov is the U.S. government's official web portal to all federal, state and local government web resources and services.